Home > Weather > The Settlement > Past weeks

Flag for Christmas Island Weather for the Past 2 Weeks in The Settlement, Christmas Island

Now
73 °F

Lots of rain. Mostly cloudy.


Feels Like: 70 °F
Forecast: 76 / 82 °F
Wind: 17 mph from Northwest

Location: Christmas Island Aerodrome

Current Time: Feb 12, 2016 at 1:43:40 PM

Latest Report: Feb 12, 2016 at 1:05 PM


Visibility: 1 mi

Pressure: 29.86 "Hg

Humidity: 94%

Dew point: 72 °F

Location of The SettlementLocation

Historic Weather in The Settlement — Graph

°F

The Settlement Temperature Yesterday

Maximum temperature yesterday: 84 °F (at 11:30 AM)
Minimum temperature yesterday: 73 °F (at 10:56 PM)
Average temperature yesterday: 78 °F

High & Low Weather Summary for the Past Weeks

 TemperatureHumidityPressure
High86 °F (Jan 28, 12:30 PM)100% (Jan 30, 4:00 PM)29.95 "Hg (Jan 30, 4:00 PM)
Low73 °F (Jan 31, 9:00 PM)62% (Jan 28, 12:00 PM)29.74 "Hg (Jan 31, 2:00 PM)
Average78 °F87%29.85 "Hg
* Reported Jan 28 12:00 Noon — Feb 12 12:30 PM, The Settlement, Weather by CustomWeather, © 2016

Note: Actual official high and low records may vary slightly from our data, if they occured in-between our weather recording intervals... More about our weather records

Advertising

The Settlement Weather History for the Previous 24 Hours

 ConditionsComfort  
Time TempWeatherWind HumidityBarometerVisibility
12:30 PM
Fri, Feb 12
77 °FSprinkles. Mostly cloudy.9 mph94%29.86 "Hg1 mi
12:00 PM79 °FCloudy.9 mph89%29.86 "HgN/A
11:30 AM79 °FDrizzle. Cloudy.7 mph89%29.89 "HgN/A
11:00 AM79 °FMostly cloudy.8 mph89%29.89 "HgN/A
10:00 AM79 °FSprinkles. Overcast.6 mph89%29.89 "HgN/A
9:00 AM77 °FLight rain. Overcast.5 mph94%29.89 "HgN/A
8:30 AM77 °FDrizzle. Overcast.6 mph94%29.89 "HgN/A
8:00 AM77 °FPartly sunny.6 mph94%29.89 "HgN/A
7:30 AM77 °FBroken clouds.5 mph94%29.89 "HgN/A
7:00 AM77 °FOvercast.5 mph94%29.89 "HgN/A
6:30 AM75 °FDrizzle. Overcast.6 mph100%29.86 "HgN/A
6:00 AM75 °FSprinkles. Cloudy.6 mph100%29.86 "HgN/A
4:00 AM75 °FSprinkles. Overcast.6 mph94%29.83 "HgN/A
3:30 AM75 °FDrizzle. Overcast.6 mph94%29.86 "HgN/A
3:00 AM75 °FLight rain. Overcast.6 mph94%29.86 "HgN/A
2:00 AM75 °FRain. Overcast.5 mph94%29.86 "Hg4 mi
1:30 AM75 °FLight rain. Mostly cloudy.6 mph94%29.86 "HgN/A
1:00 AM75 °FLight rain. Overcast.5 mph94%29.86 "HgN/A
12:30 AM75 °FRain. Overcast.6 mph94%29.86 "HgN/A
12:00 AM75 °FRain. Overcast.7 mph94%29.89 "HgN/A
11:00 PM
Thu, Feb 11
73 °FRain. Overcast.8 mph100%29.92 "HgN/A
10:56 PM73 °FRain. Overcast.7 mph100%29.92 "HgN/A
10:30 PM75 °FRain. Overcast.5 mph94%29.92 "Hg3 mi
10:00 PM75 °FRain. Mostly cloudy.6 mph94%29.92 "Hg5 mi
9:56 PM75 °FHeavy rain. Overcast.6 mph94%29.92 "Hg5 mi
9:00 PM75 °FRain. Mostly cloudy.No wind94%29.89 "Hg4 mi
8:30 PM75 °FRain. Overcast.No wind94%29.89 "HgN/A
8:01 PM75 °FDrizzle. Overcast.No wind94%29.89 "HgN/A
7:00 PM75 °FSprinkles. Overcast.2 mph94%29.86 "HgN/A
6:04 PM75 °FSprinkles. Mostly cloudy.5 mph94%29.86 "HgN/A
5:00 PM77 °FSprinkles. More clouds than sun.5 mph94%29.83 "HgN/A
4:52 PM77 °FSprinkles. More clouds than sun.5 mph94%29.83 "HgN/A
4:30 PM77 °FSprinkles. Mostly cloudy.6 mph94%29.80 "HgN/A
4:00 PM77 °FLots of rain. Cloudy.5 mph94%29.80 "Hg1 mi
3:00 PM82 °FMore clouds than sun.8 mph74%29.80 "HgN/A
2:30 PM82 °FScattered clouds.7 mph74%29.80 "HgN/A
2:05 PM82 °FPartly sunny.6 mph74%29.80 "HgN/A
1:30 PM82 °FScattered clouds.9 mph74%29.83 "HgN/A
1:00 PM82 °FPartly sunny.9 mph79%29.83 "HgN/A
Weather by CustomWeather, © 2016

See weather overviewHow to use our weather pages